Back to catalog

SL-6 R/B(2)

AliveHEO
NORAD 12940·ROCKET BODY·🇷🇺 Russia

Launched Oct 31, 1981 from Plesetsk Cosmodrome

Loading…

Next Passes (next 24 hours)

TLE

FreshSource: Space-Track

Epoch: Sep 14, 2026, 00:48 UTC

1 12940U 81108D   26257.03384379  .00000618  00000-0  00000-0 0  9998
2 12940  65.5323 239.1654 6752678 344.8485   2.0063  1.99089744326316

Track SL-6 R/B(2) in real time with AllMySat

Download on the App Store